[Date Prev][Date Next][Thread Prev][Thread Next] - [Date Index][Thread Index][Author Index]

2 Line ISS Keps 3-5



ISS
1 25544U 98067A   04065.34782443  .00014636  00000-0  14242-3 0  3170
2 25544  51.6284 134.5268 0011126 240.1026 209.4528 15.66473386302029


----
Via the sarex mailing list at AMSAT.ORG courtesy of AMSAT-NA.
To unsubscribe, send "unsubscribe sarex" to Majordomo@amsat.org



AMSAT Top AMSAT Home